Hourly Data Report for May 13, 2021

TOBERMORY RCS
ONTARIO
Current Station Operator: ECCC - MSC

45°14'00.000" N
81°38'00.000" W
213.50 m
6128330
71767
TTR

Download Data

Hourly Data (May 2021)
Hourly Data Report for May 13, 2021
TIME
LST
Temp Definition
°C
Dew Point Definition
°C
Rel Hum Definition
%
Precip. Amount Definition
mm

Wind Dir Definition
10's deg

Wind Spd Definition
km/h
Visibility Definition
km
Stn Press Definition
kPa
Hmdx Definition


Wind Chill Definition


Weather Definition


00:00 7.6 -0.5 56 0.0 30 14   100.09     LegendNANA
01:00 7.3 -0.1 59 0.0 30 14   100.09     LegendNANA
02:00 6.5 0.4 65 0.0 30 13   100.08     LegendNANA
03:00 6.0 1.0 70 0.0 30 12   100.09     LegendNANA
04:00 5.9 0.9 70 0.0 31 13   100.10     LegendNANA
05:00 5.7 1.0 72 0.0 31 13   100.11     LegendNANA
06:00 6.8 0.8 66 0.0 32 13   100.16     LegendNANA
07:00 8.5 1.1 59 0.0 32 11   100.20     LegendNANA
08:00 10.0 1.0 54 0.0 31 11   100.22     LegendNANA
09:00 11.1 1.9 53 0.0 31 9   100.23     LegendNANA
10:00 12.9 2.0 47 0.0 28 9   100.20     LegendNANA
11:00 14.8 0.7 38 0.0 28 9   100.18     LegendNANA
12:00 13.3 1.6 45 0.0 29 13   100.17     LegendNANA
13:00 14.1 0.3 39 0.0 29 12   100.12     LegendNANA
14:00 15.5 -1.8 30 0.0 29 13   100.09     LegendNANA
15:00 15.4 -1.5 31 0.0 28 17   100.05     LegendNANA
16:00 15.3 -2.1 30 0.0 29 17   100.00     LegendNANA
17:00 16.1 -1.6 30 0.0 27 13   99.98     LegendNANA
18:00 15.1 -3.5 27 0.0 27 10   99.94     LegendNANA
19:00 9.8 0.4 52 0.0 23 5   99.94     LegendNANA
20:00 6.5 0.8 67 0.0 22 7   99.93     LegendNANA
21:00 4.9 1.2 77 0.0 21 5   99.95     LegendNANA
22:00 3.3 1.5 88 0.0 22 5   99.95     LegendNANA
23:00 2.8 1.4 90 0.0 22 2   99.92     LegendNANA

Notes on Data Quality.

Legend

  • E = Estimated
  • M = Missing
  • NA = Not Available*
  • [empty] = Indicates an unobserved value
Date modified: